EW3286 Weather Reports


Display with metric or nautical units.
time (UTC)temp
F
wind
direction
speed
MPH
gust
MPH
rain 1hr
in
rain 24hr
in
rain mn
in
humidity
%
barometer
mb
20260903020023 77 76 0.0 0.0 0.00 0.00 0.00 86 1007.3
20260903014523 78 77 0.0 0.0 0.00 0.00 0.00 84 1007.3
20260903013019 79 77 0.0 0.0 0.00 0.00 0.00 82 1007.1
20260903011522 81 77 0.0 0.0 0.00 0.00 0.00 79 1007.0
20260903010019 82 83 0.0 0.0 0.00 0.00 0.00 78 1006.9
20260903004527 82 77 0.0 0.0 0.00 0.00 0.00 76 1006.9
20260903003018 83 77 0.0 0.0 0.00 0.00 0.00 75 1006.8
20260903001516 84 78 0.0 0.0 0.00 0.00 0.00 73 1006.7
20260903000016 84 57 0.0 0.0 0.00 0.00 0.00 71 1006.9
20260902234514 85 70 0.0 0.0 0.00 0.00 0.00 69 1006.8
20260902233019 85 55 0.0 0.0 0.00 0.00 0.00 68 1006.8
20260902231514 85 84 0.0 0.0 0.00 0.00 0.00 66 1006.9
20260902230015 86 76 0.0 0.0 0.00 0.00 0.00 65 1006.9
20260902224512 86 96 0.0 0.0 0.00 0.00 0.00 66 1006.9
20260902223013 86 91 0.0 0.0 0.00 0.00 0.00 62 1006.8
20260902221516 86 70 0.0 0.0 0.00 0.00 0.00 62 1006.8
20260902220009 87 87 0.0 0.0 0.00 0.00 0.00 64 1006.9
20260902214510 87 74 0.0 0.0 0.00 0.00 0.00 62 1007.0
20260902213005 87 78 0.0 0.0 0.00 0.00 0.00 62 1007.0
20260902211609 87 93 0.0 0.0 0.00 0.00 0.00 64 1007.1
20260902210058 87 85 0.0 0.0 0.00 0.00 0.00 62 1007.2
20260902204552 87 79 0.0 0.0 0.00 0.00 0.00 62 1007.2
20260902203050 87 74 0.0 0.0 0.00 0.00 0.00 60 1007.4
20260902201545 87 75 0.0 0.0 0.00 0.00 0.00 60 1007.5
20260902200040 86 55 0.0 0.0 0.00 0.00 0.00 59 1007.6
20260902194536 86 29 0.0 0.0 0.00 0.00 0.00 62 1007.9
20260902193030 86 53 0.0 0.0 0.00 0.00 0.00 61 1008.0
20260902191527 86 46 0.0 0.0 0.00 0.00 0.00 62 1008.1
20260902190027 85 68 0.0 0.0 0.00 0.00 0.00 61 1008.4
20260902184524 85 38 0.0 0.0 0.00 0.00 0.00 59 1008.7
20260902183021 85 78 0.0 0.0 0.00 0.00 0.00 64 1009.2
20260902181518 84 52 0.0 0.0 0.00 0.00 0.00 65 1009.2
20260902180014 84 78 0.0 0.0 0.00 0.00 0.00 66 1009.3
20260902174511 83 69 0.0 0.0 0.00 0.00 0.00 67 1009.4
20260902173010 83 67 0.0 0.0 0.00 0.00 0.00 69 1009.7
20260902171505 82 69 0.0 0.0 0.00 0.00 0.00 69 1009.9
20260902170002 82 99 0.0 0.0 0.00 0.00 0.00 69 1010.1
20260902164603 82 135 0.0 0.0 0.00 0.00 0.00 69 1010.1
20260902163055 82 157 0.0 0.0 0.00 0.00 0.00 70 1010.1
20260902161552 81 140 0.0 0.0 0.00 0.00 0.00 70 1010.3
20260902160051 79 296 0.0 0.0 0.00 0.00 0.00 73 1010.4
20260902154601 79 297 0.0 0.0 0.00 0.00 0.00 73 1010.5
20260902153041 78 296 0.0 0.0 0.00 0.00 0.00 77 1010.5
20260902151537 77 297 0.0 0.0 0.00 0.00 0.00 78 1010.2
20260902150033 77 355 0.0 0.0 0.00 0.00 0.00 80 1010.2
20260902144528 76 18 0.0 0.0 0.00 0.00 0.00 81 1009.9
20260902143024 75 63 0.0 0.0 0.00 0.00 0.00 83 1009.8
20260902141521 74 63 0.0 0.0 0.00 0.00 0.00 84 1010.0
20260902140016 73 355 0.0 0.0 0.00 0.00 0.00 86 1010.0
20260902134511 72 5 0.0 0.0 0.00 0.00 0.00 87 1009.9
20260902133007 71 40 0.0 0.0 0.00 0.00 0.00 88 1010.0
20260902131502 71 34 0.0 0.0 0.00 0.00 0.00 89 1010.0
20260902130059 70 333 0.0 0.0 0.00 0.00 0.00 90 1009.9
20260902124555 69 333 0.0 0.0 0.00 0.00 0.00 92 1009.8
20260902123050 68 331 0.0 0.0 0.00 0.00 0.00 93 1009.6
20260902121550 68 323 0.0 0.0 0.00 0.00 0.00 93 1009.7
20260902120046 68 323 0.0 0.0 0.00 0.00 0.00 93 1009.7
20260902114613 68 303 0.0 0.0 0.00 0.00 0.00 93 1009.8
20260902113049 68 302 0.0 0.0 0.00 0.00 0.00 93 1009.8
20260902111548 68 300 0.0 0.0 0.00 0.00 0.00 94 1009.9
20260902110049 67 284 0.0 0.0 0.00 0.00 0.00 94 1009.9
20260902104544 67 284 0.0 0.0 0.00 0.00 0.00 93 1010.1
20260902103059 67 284 0.0 0.0 0.00 0.00 0.00 92 1010.3
20260902101543 67 299 0.0 0.0 0.00 0.00 0.00 93 1009.9
20260902100104 67 41 0.0 0.0 0.00 0.00 0.00 92 1009.6
20260902094539 67 46 0.0 0.0 0.00 0.00 0.00 91 1009.7
20260902093054 68 36 0.0 0.0 0.00 0.00 0.00 92 1009.8
20260902091538 68 315 0.0 0.0 0.00 0.00 0.00 92 1009.8
20260902090038 68 296 0.0 0.0 0.00 0.00 0.00 92 1009.6
20260902084536 68 198 0.0 0.0 0.00 0.00 0.00 90 1009.4
20260902083039 68 198 0.0 0.0 0.00 0.00 0.00 90 1009.8
20260902081533 69 198 0.0 0.0 0.00 0.00 0.00 88 1010.1
20260902080033 69 198 0.0 0.0 0.00 0.00 0.00 87 1010.5
20260902074538 70 182 0.0 0.0 0.00 0.00 0.00 85 1011.0
20260902073031 71 192 0.0 0.0 0.00 0.00 0.00 83 1011.4
20260902071529 70 146 0.0 0.0 0.00 0.00 0.00 83 1012.5
20260902070026 69 230 0.0 0.0 0.00 0.00 0.00 86 1009.1
20260902064526 69 76 0.0 0.0 0.00 0.00 0.00 86 1006.9
20260902063022 70 66 0.0 0.0 0.00 0.00 0.00 86 1006.5
20260902061522 69 63 0.0 0.0 0.00 0.00 0.00 89 1006.9
20260902060015 68 150 0.0 0.0 0.00 0.00 0.00 92 1009.0
20260902054513 68 128 0.0 0.0 0.00 0.00 0.00 93 1009.3
20260902053012 68 98 0.0 0.0 0.00 0.00 0.00 92 1009.3
20260902051512 68 207 0.0 0.0 0.00 0.00 0.00 92 1009.4
20260902050015 69 284 0.0 0.0 0.00 0.00 0.00 91 1009.3
20260902044505 69 180 0.0 0.0 0.00 0.00 0.00 92 1010.1
20260902043011 67 180 0.0 0.0 0.00 0.00 0.00 93 1010.4
20260902041505 64 152 0.0 0.0 0.00 0.00 0.00 93 1012.5
20260902040004 65 150 0.0 0.0 0.00 0.00 0.00 89 1014.1
20260902034502 74 184 0.0 0.0 0.00 0.00 0.00 89 1012.0
20260902033001 75 254 0.0 0.0 0.00 0.00 0.00 90 1011.4
20260902031502 75 288 0.0 0.0 0.00 0.00 0.00 89 1010.5
20260902030002 75 338 0.0 0.0 0.00 0.00 0.00 89 1010.3
20260902024623 76 288 0.0 0.0 0.00 0.00 0.00 87 1010.2
20260902023105 76 269 0.0 0.0 0.00 0.00 0.00 87 1010.7
20260902021605 76 267 0.0 0.0 0.00 0.00 0.00 86 1010.7